Regional Weather Roundup
Issued by NWS

Home | Current Version | Previous Version | Graphics & Text | Print | Product List | Glossary On
Versions: 1 2 3 4 5 6 7 8 9 10 11 12 13 14 15 16 17 18 19 20 21 22 23 24 25 26 27 28 29 30 31 32 33 34 35 36 37 38 39 40 41 42 43
000
ASUS45 KSLC 251710
RWRUT

UTAH REGIONAL WEATHER ROUNDUP
NATIONAL WEATHER SERVICE SALT LAKE CITY UT
1000 AM MST THU DEC 25 2014

UTZ001>011-023>025-251800-

NORTHERN UTAH

CITY           SKY/WX    TMP DP  RH WIND       PRES   REMARKS
BRIGHAM CITY   CLOUDY    29  26  89 S3        29.64R
HILL AFB       LGT SNOW  27  27 100 N2        29.63R FOG
LOGAN          LGT SNOW  27  25  92 S3        29.61R FOG
OGDEN          LGT SNOW  28  27  96 CALM      29.63R VSB 1
PROVO AIRPORT  CLOUDY    28  23  80 NW8       29.64R WCI  20
SALT LAKE CITY LGT SNOW  28  25  88 W13       29.65R FOG     WCI  17
VERNAL         LGT SNOW  27  24  89 CALM      29.53R FOG
WENDOVER       CLOUDY    30  16  55 NW35G43   29.66R WCI  14
HEBER CITY     LGT SNOW  27  23  86 SE5       29.58R VSB 1   WCI  21
WEST JORDAN    CLOUDY    28  25  86 NW10      29.64R WCI  19

$$

UTZ012>022-026-027-251800-

SOUTHERN/CENTRAL UTAH

CITY           SKY/WX    TMP DP  RH WIND       PRES   REMARKS
BLANDING       CLOUDY    32  26  76 CALM      29.63R
BRYCE CANYON   LGT SNOW  20  15  81 W17       29.57R WCI   5
CEDAR CITY     LGT SNOW  27  22  81 NE10      29.67R WCI  17
DELTA          CLOUDY    28  21  77 N12       29.70R WCI  17
MILFORD        HVY SNOW  26  23  88 N16       29.70R VSB 1/4 WCI  14
MOAB/CYNLANDS  LGT SNOW  30  28  92 W6        29.52R FOG     WCI  24
PRICE          CLOUDY    29  23  78 NE5       29.51R WCI  24
ST GEORGE      CLOUDY    43  19  39 W14G21    29.74R
KANAB          MOSUNNY   34  23  64 SW12      29.69R WCI  25

$$

REGIONAL REPORTS     COLORADO/ARIZONA

CITY           SKY/WX    TMP DP  RH WIND       PRES   REMARKS
CRAIG, CO      LGT SNOW  30  27  88 E8        29.50R FOG     WCI  22
GRAND JUNCTION CLOUDY    30  28  92 NW3       29.51R
RIFLE          LGT SNOW  26  23  88 CALM      29.54S FOG
MONTROSE       CLOUDY    37  27  67 W8        29.54R WCI  31
CORTEZ         LGT SNOW  35  25  66 S21G28    29.62R WCI  24
PAGE, AZ       MOSUNNY   44  21  40 W12G22    29.59R
GRAND CANYON   CLOUDY    29  24  82 SW16G23   29.67S WCI  17
KINGMAN        CLOUDY    44  19  36 W6        29.77R
FLAGSTAFF      FLURRIES  31  17  56 SW16G26   29.68R WCI  20

$$

REGIONAL REPORTS    NEVADA/IDAHO/WYOMING

CITY           SKY/WX    TMP DP  RH WIND       PRES   REMARKS
LAS VEGAS, NV  MOSUNNY   49  14  24 NW26G37   29.77R
ELY            CLOUDY    21  13  71 N16G26    29.75R WCI   7
ELKO           CLOUDY    26  18  71 S12G18    29.81R WCI  16
POCATELLO, ID  SNOW      29  28  96 VRB3      29.65R VSB 1/2
EVANSTON, WY   CLOUDY    20  18  92 SW16      29.51R WCI   6
ROCK SPRINGS   SNOW      24  22  91 W12       29.51R VSB 1/4 WCI  13

$$



USA.gov is the U.S. government's official web portal to all federal, state and local government web resources and services.